Dewpoint
69 68 69 69 68 68 67 67 67 66 65 65 64 63 62 62 61 59 58 57 57 57 55 54 53 52 50 49 50 53 42 45
69 69 68 68 67 66 66 66 65 64 64 63 62 61 61 62 59 58 57 56 56 55 54 52 51 50 47 45 48 51 41 45
69 68 67 67 66 65 65 64 64 63 62 62 60 55 57 58 57 57 55 54 54 54 53 51 50 48 45 47 48 40 42 47
68 68 67 66 64 64 63 61 60 59 58 58 54 56 54 54 55 55 53 52 52 52 50 50 50 40 40 48 44 50 51 52
66 66 66 65 64 63 61 60 58 57 57 57 57 54 53 53 52 50 50 50 42 43 45 42 39 39 42 46 47 48 50 52
66 65 65 64 63 62 62 59 57 55 55 59 57 52 52 51 47 45 46 44 43 42 40 45 46 46 47 47 46 46 48 51
65 65 64 63 63 61 62 60 56 55 55 55 53 50 52 49 45 42 41 41 43 41 43 44 45 45 44 45 45 47 48 48
64 64 64 63 62 62 61 60 57 54 52 52 55 50 51 45 44 41 40 40 40 40 41 43 43 43 43 43 43 44 46 48
62 63 63 63 62 61 60 57 54 51 49 56 53 51 51 49 44 41 40 41 43 41 43 43 42 41 43 42 43 44 44 45
62 60 61 62 61 59 58 55 53 48 48 51 53 50 50 50 43 42 42 43 39 40 40 41 40 40 40 38 40 41 42 41
60 61 61 61 61 58 58 57 51 48 47 48 51 49 49 47 43 43 46 40 39 39 40 42 40 39 38 38 39 38 37 35
59 59 60 60 59 56 54 51 51 49 47 47 51 49 49 47 43 46 44 38 38 39 44 43 41 37 33 37 38 38 38 38
59 59 59 58 55 53 52 50 49 47 45 49 51 49 50 49 43 45 43 40 41 46 46 44 38 39 39 39 38 40 39 37
58 58 58 57 55 54 52 50 48 45 45 47 49 49 50 46 46 44 44 41 44 46 46 42 39 41 36 35 34 34 35 35
58 58 57 57 56 53 52 50 49 46 45 45 48 48 48 47 46 44 44 43 43 46 45 45 39 41 44 41 37 31 32 34
58 58 57 56 56 53 52 48 45 44 44 44 45 46 46 44 45 45 45 42 44 45 44 43 43 39 39 37 37 39 30 28
59 58 58 56 55 55 52 50 48 46 45 46 46 46 46 42 44 44 44 42 43 44 44 43 41 38 35 33 36 33 38 30
58 58 57 56 56 55 53 52 48 45 44 44 43 44 43 43 41 43 41 40 42 40 41 40 38 39 36 33 31 30 27 27
57 57 56 56 55 55 53 52 51 49 46 44 43 42 42 43 42 43 40 41 41 38 40 40 38 38 39 35 35 31 29 26
56 55 55 55 54 53 53 51 48 47 46 45 44 42 41 43 42 40 39 40 38 39 38 38 40 39 39 37 32 31 29 28
Lifted_Index
-4 -4 -3 -3 -2 -2 -2 -2 -1 -1 -1 -1 -0 1 2 2 3 4 5 6 6 7 8 9 10 10 11 12 11 10 8 8
-5 -4 -3 -2 -2 -2 -2 -2 -1 -1 -1 -0 1 2 3 3 4 5 6 7 7 8 9 10 10 11 12 12 11 10 8 7
-5 -4 -3 -2 -2 -2 -2 -2 -1 -1 -0 1 3 4 4 4 5 6 7 8 8 9 10 10 11 11 12 11 10 8 7 7
-4 -4 -3 -2 -2 -2 -2 -1 -1 -1 1 3 4 4 5 5 6 8 9 9 10 11 11 11 11 11 10 9 8 7 6 6
-4 -3 -3 -2 -2 -1 -1 -1 -0 1 2 3 4 4 5 6 7 9 10 10 11 11 11 11 10 10 9 8 7 7 6 6
-3 -3 -2 -2 -2 -1 -1 0 1 2 3 4 4 5 6 7 8 9 10 10 11 11 10 10 10 9 9 8 8 7 7 7
-3 -2 -2 -2 -2 -1 -1 1 2 3 4 5 5 6 6 7 9 9 10 10 10 10 10 10 10 9 9 9 9 8 8 8
-2 -2 -1 -1 -1 -1 -0 1 3 4 5 6 6 7 7 8 9 10 10 10 10 10 10 10 10 10 10 10 10 9 9 9
-1 -1 -1 -1 -1 -1 0 2 4 5 6 6 7 7 8 8 9 10 10 11 11 11 10 10 10 10 10 10 10 10 10 10
-0 -0 -1 -1 -1 -1 1 3 4 6 7 7 7 8 8 9 9 10 10 11 11 11 10 10 10 10 11 11 11 11 11 11
0 0 -0 -1 -1 -0 1 3 5 6 7 7 8 8 9 9 10 10 11 11 11 11 10 10 10 10 11 11 11 12 12 12
1 1 1 -0 -1 -1 1 2 4 6 7 8 8 8 9 9 10 10 11 11 11 11 10 10 10 10 11 11 12 12 12 12
1 1 1 0 -0 -1 -0 0 3 6 7 8 8 9 9 9 10 10 11 11 11 10 10 10 11 11 11 11 12 12 12 12
2 2 2 1 -0 -1 -1 0 2 5 7 7 8 9 9 10 10 10 11 11 11 10 10 11 11 11 11 11 11 11 12 13
2 2 2 2 0 -0 -0 1 2 3 5 6 7 9 10 10 10 11 11 11 11 11 11 11 11 11 11 11 10 10 12 13
1 2 3 2 1 1 0 0 0 1 2 4 6 9 10 11 11 11 12 12 12 11 12 12 12 12 12 11 11 11 12 12
1 2 3 3 2 1 1 -0 -0 0 2 3 5 8 10 11 11 12 12 12 12 12 13 13 13 13 13 12 12 12 12 12
0 1 2 2 2 2 1 1 0 1 1 2 3 6 9 11 12 12 13 13 13 13 14 14 14 14 13 13 13 13 12 12
-0 0 1 2 2 2 2 2 2 2 2 2 2 4 7 10 12 13 13 14 14 14 14 14 14 14 14 13 13 13 13 12
-0 0 1 1 1 1 2 3 3 3 3 2 3 4 7 10 12 13 14 14 14 14 14 15 14 14 14 14 14 13 13 12